Flag for Germany Weather past 2 weeks in Cuxhaven, Lower Saxony, Germany

Now
73 °F

Partly sunny.


Feels Like: 76 °F
Forecast: 63 / 75 °F
Wind: 10 mph from East

Location: Nordholz

Current Time: Jul 25, 2014 at 1:22:43 PM

Latest Report: Jul 25, 2014 at 12:20 PM


Visibility: N/A

Pressure: 30.01 "Hg

Humidity: 69%

Dew point: 63 °F

Location of CuxhavenLocation

Historic Weather in Cuxhaven — Graph

°F

Cuxhaven temperature yesterday

Maximum temperature yesterday: 79 °F (at 12:20 PM)
Minimum temperature yesterday: 61 °F (at 3:20 AM)
Average temperature yesterday: 71 °F

Past Weeks' High & Low Weather Summary

 TemperatureHumidityPressure
High90 °F (Jul 19, 3:20 PM)100% (Jul 14, 12:20 AM)30.21 "Hg (Jul 14, 12:20 AM)
Low52 °F (Jul 17, 2:20 AM)33% (Jul 19, 5:20 PM)29.65 "Hg (Jul 13, 7:20 PM)
Average69 °F71%29.99 "Hg
* Reported Jul 10 11:20 AM — Jul 25 11:20 AM, Cuxhaven, Weather by CustomWeather, © 2014

Note: Actual official high and low records may vary slightly from our data, if they occured in-between our weather recording intervals... More about our weather records

Advertising

Cuxhaven weather history for previous 24 hours

 ConditionsComfort  
Time TempWeatherWind HumidityBarometerVisibility
11:20 AM
Jul 25
72 °FPartly sunny.10 mph73%30.01 "HgN/A
10:20 AM70 °FLight rain. Partly sunny.9 mph73%30.04 "HgN/A
9:20 AM68 °FMore clouds than sun.8 mph78%30.04 "HgN/A
8:20 AM66 °FLight rain. Broken clouds.6 mph83%30.04 "HgN/A
7:20 AM66 °FPartly sunny.7 mph83%30.04 "HgN/A
6:20 AM64 °FPartly cloudy.6 mph83%30.04 "HgN/A
5:20 AM64 °FPassing clouds.5 mph78%30.04 "HgN/A
4:20 AM64 °FPassing clouds.5 mph78%30.04 "HgN/A
3:20 AM64 °FOvercast.3 mph73%30.07 "HgN/A
2:20 AM64 °FOvercast.5 mph73%30.07 "HgN/A
1:20 AM66 °FPassing clouds.6 mph68%30.07 "HgN/A
12:20 AM66 °FPassing clouds.5 mph68%30.07 "HgN/A
11:50 PM
Jul 24
66 °FPartly cloudy.6 mph73%30.07 "HgN/A
11:20 PM66 °FPartly cloudy.5 mph73%30.07 "HgN/A
10:20 PM68 °FBroken clouds.5 mph69%30.07 "HgN/A
9:20 PM72 °FBroken clouds.6 mph65%30.07 "HgN/A
8:20 PM75 °FOvercast.9 mph57%30.04 "HgN/A
7:20 PM77 °FOvercast.7 mph54%30.04 "HgN/A
6:20 PM77 °FMostly cloudy.3 mph54%30.04 "HgN/A
5:20 PM79 °FMore clouds than sun.6 mph48%30.04 "HgN/A
4:20 PM79 °FScattered showers. Broken clouds.6 mph48%30.07 "HgN/A
3:20 PM79 °FScattered showers. Broken clouds.17 mph45%30.07 "HgN/A
2:20 PM79 °FPartly sunny.15 mph45%30.07 "HgN/A
1:20 PM79 °FPartly sunny.17 mph48%30.09 "HgN/A
Weather by CustomWeather, © 2014

See weather overviewHow to use our weather pages